Regional Weather Roundup
Issued by NWS Sioux Falls, SD

Home | Current Version | Previous Version | Graphics & Text | Print | Product List | Glossary Off
Versions: 1 2 3 4 5 6 7 8 9 10 11 12 13 14 15 16 17 18 19 20 21 22 23 24 25 26 27 28 29 30 31 32 33 34 35 36 37 38 39 40 41 42 43 44 45 46 47 48 49 50

000
ASUS43 KFSD 231810
RWRFSD

WEATHER ROUNDUP FOR SE SOUTH DAKOTA/SW MINNESOTA/NW IOWA
NATIONAL WEATHER SERVICE SIOUX FALLS SD
1200 PM CST TUE JAN 23 2018

NOTE: "FAIR" INDICATES FEW OR NO CLOUDS BELOW 12,000 FEET WITH NO
SIGNIFICANT WEATHER AND OR OBSTRUCTIONS TO VISIBILITY.


SDZ038>040-050-052>070-231900-
SOUTHEAST SOUTH DAKOTA

CITY           SKY/WX    TMP DP  RH WIND       PRES   REMARKS
BROOKINGS      CLOUDY    21  19  92 S3        30.09F
CHAMBERLAIN    CLOUDY    27  27 100 W3        30.12S
6HR MIN TEMP:  17; 6HR MAX TEMP:  27;

HURON          CLOUDY    22  21  96 SW5       30.12F WCI  16
6HR MIN TEMP:  19; 6HR MAX TEMP:  22;

MADISON        CLOUDY    19  19 100 W6        30.10F WCI  11
MITCHELL       CLOUDY    23  22  96 W5        30.14F FOG     WCI  17
6HR MIN TEMP:  20; 6HR MAX TEMP:  23;

SIOUX FALLS    CLOUDY    22  20  92 W3        30.14S
6HR MIN TEMP:  21; 6HR MAX TEMP:  22;

WINNER         FAIR      37  28  70 W14       30.13S
YANKTON        CLOUDY    24  21  88 W7        30.17S WCI  16
$$

MNZ071-072-080-081-089-090-097-098-231900-
SOUTHWEST MINNESOTA

CITY           SKY/WX    TMP DP  RH WIND       PRES   REMARKS
FAIRMONT       FAIR      24  19  81 NW16      30.10R WCI  11
JACKSON        FAIR      23  18  80 NW14      30.10R WCI  11
LUVERNE        CLOUDY    23  19  86 NW7       30.13S WCI  15
MARSHALL       CLOUDY    23  19  85 NW8       30.12F WCI  14
6HR MIN TEMP:  21; 6HR MAX TEMP:  23;

MONTEVIDEO     CLOUDY    27  19  74 N8        30.12F WCI  18
PIPESTONE      CLOUDY    19  18  93 NW5       30.09F WCI  13
REDWOOD FALLS  FAIR      27  16  63 NW8       30.10F WCI  19
TRACY          CLOUDY    24  20  85 N8        30.10F WCI  15
WINDOM         FAIR      23   7  50 NW10      30.09S WCI  12
WORTHINGTON    CLOUDY    23  20  88 NW13      30.11R WCI  11
$$

IAZ001>003-012>014-020>022-031-032-NEZ013-014-SDZ071-231900-
NORTHWEST IOWA

CITY           SKY/WX    TMP DP  RH WIND       PRES   REMARKS
CHEROKEE       CLOUDY    23  20  87 N8        30.14F WCI  14
DENISON        CLOUDY    23  19  86 N13       30.16S WCI  11
ESTHERVILLE    FAIR      22  17  81 NW13      30.10R WCI  10
LE MARS        CLOUDY    23  21  93 NW8       30.16S WCI  14
ORANGE CITY    CLOUDY    25  21  86 NW9       30.14R WCI  15
SHELDON        MIX PCPN  21  19  93 W8        30.12S WCI  12
SIOUX CITY     CLOUDY    22  19  89 N12       30.18S WCI  10
6HR MIN TEMP:  21; 6HR MAX TEMP:  23; 6HR PCP: TRACE;

SPENCER        CLOUDY    24  18  77 N14       30.12S WCI  12
6HR MIN TEMP:  22; 6HR MAX TEMP:  24;

STORM LAKE       N/A     23  19  86 NW13      30.11F WCI  11
$$

ABBREVIATIONS USED IN REMARKS
   TC - TEMPERATURE IN CELSIUS
  WCI - WIND CHILL INDEX
   HX - HEAT INDEX
  VSB - VISIBILITY




USA.gov is the U.S. government's official web portal to all federal, state and local government web resources and services.